GW6910 Weather Reports


time (UTC)temp
C
wind
direction
speed
KPH
gust
KPH
rain 1hr
cm
rain 24hr
cm
rain mn
cm
humidity
%
barometer
mb
20260507201518 10 200 0.0 3.2 0.00 0.00 0.00 87 1016.9
20260507201007 10 192 0.0 3.2 0.00 0.00 0.00 87 1016.8
20260507200509 10 192 0.0 3.2 0.00 0.00 0.00 87 1016.8
20260507200021 10 196 0.0 3.2 0.00 0.00 0.00 86 1016.7
20260507195506 10 209 1.6 3.2 0.00 0.00 0.00 85 1016.7
20260507195010 10 248 0.0 3.2 0.00 0.00 0.00 85 1016.6
20260507194526 10 218 0.0 3.2 0.00 0.00 0.00 85 1016.6
20260507194010 10 229 0.0 3.2 0.00 0.00 0.00 85 1016.5
20260507193510 10 221 0.0 3.2 0.00 0.00 0.00 85 1016.4
20260507193027 10 221 0.0 3.2 0.00 0.00 0.00 85 1016.4
20260507192507 10 221 0.0 3.2 0.00 0.00 0.00 85 1016.4
20260507192010 10 227 1.6 3.2 0.00 0.00 0.00 84 1016.4
20260507191528 10 249 0.0 3.2 0.00 0.00 0.00 84 1016.4
20260507191008 11 249 0.0 3.2 0.00 0.00 0.00 83 1016.3
20260507190509 11 258 0.0 3.2 0.00 0.00 0.00 82 1016.4
20260507190022 11 277 0.0 3.2 0.00 0.00 0.00 81 1016.4
20260507185507 11 272 1.6 3.2 0.00 0.00 0.00 82 1016.4
20260507185011 11 188 0.0 3.2 0.00 0.00 0.00 82 1016.4
20260507184524 11 183 1.6 3.2 0.00 0.00 0.00 81 1016.4
20260507184010 11 216 0.0 3.2 0.00 0.00 0.00 80 1016.4
20260507183510 11 225 0.0 3.2 0.00 0.00 0.00 81 1016.3
20260507183027 11 246 0.0 3.2 0.00 0.00 0.00 81 1016.3
20260507182509 11 212 0.0 3.2 0.00 0.00 0.00 81 1016.3
20260507182011 11 207 0.0 3.2 0.00 0.00 0.00 82 1016.2
20260507181527 11 220 0.0 3.2 0.00 0.00 0.00 82 1016.2
20260507181014 11 207 0.0 3.2 0.00 0.00 0.00 81 1016.2
20260507180510 11 210 0.0 3.2 0.00 0.00 0.00 80 1016.2
20260507180026 11 213 0.0 3.2 0.00 0.00 0.00 79 1016.2
20260507175516 11 239 1.6 3.2 0.00 0.00 0.00 80 1016.2
20260507175007 11 199 0.0 3.2 0.00 0.00 0.00 79 1016.1
20260507174540 12 211 0.0 3.2 0.00 0.00 0.00 77 1016.1
20260507174017 12 240 0.0 3.2 0.00 0.00 0.00 77 1016.0
20260507173514 12 186 0.0 3.2 0.00 0.00 0.00 77 1016.0
20260507173028 12 186 0.0 3.2 0.00 0.00 0.00 76 1016.0
20260507172511 12 238 0.0 3.2 0.00 0.00 0.00 77 1016.0
20260507172015 12 205 0.0 3.2 0.00 0.00 0.00 77 1015.9
20260507171539 12 182 0.0 3.2 0.00 0.00 0.00 77 1016.0
20260507171010 12 213 0.0 3.2 0.00 0.00 0.00 76 1015.9
20260507170509 12 217 0.0 4.8 0.00 0.00 0.00 76 1015.9
20260507170028 12 198 1.6 4.8 0.00 0.00 0.00 75 1015.9
20260507165513 13 225 1.6 3.2 0.00 0.00 0.00 73 1015.9
20260507165012 13 32 0.0 3.2 0.00 0.00 0.00 66 1015.8
20260507164519 13 26 0.0 3.2 0.00 0.00 0.00 64 1015.8
20260507164009 13 16 1.6 3.2 0.00 0.00 0.00 63 1015.8
20260507163508 13 85 0.0 3.2 0.00 0.00 0.00 62 1015.9
20260507163023 13 86 0.0 1.6 0.00 0.00 0.00 62 1015.9
20260507162511 13 84 0.0 3.2 0.00 0.00 0.00 61 1016.0
20260507162011 13 63 0.0 3.2 0.00 0.00 0.00 60 1016.0
20260507161526 13 67 1.6 3.2 0.00 0.00 0.00 61 1016.0
20260507161013 13 77 0.0 3.2 0.00 0.00 0.00 64 1016.0
20260507160508 13 71 0.0 3.2 0.00 0.00 0.00 61 1015.9
20260507160030 13 65 1.6 3.2 0.00 0.00 0.00 62 1015.9
20260507155510 13 88 0.0 3.2 0.00 0.00 0.00 63 1015.9
20260507155014 13 88 1.6 3.2 0.00 0.00 0.00 61 1015.9
20260507154526 13 90 0.0 3.2 0.00 0.00 0.00 61 1015.9
20260507154011 13 91 1.6 3.2 0.00 0.00 0.00 63 1015.9
20260507153511 13 346 0.0 3.2 0.00 0.00 0.00 62 1015.9
20260507153027 13 78 0.0 3.2 0.00 0.00 0.00 63 1015.9
20260507152510 13 63 0.0 4.8 0.00 0.00 0.00 62 1015.9
20260507152009 13 18 1.6 4.8 0.00 0.00 0.00 62 1015.9
20260507151527 13 73 3.2 6.4 0.00 0.00 0.00 63 1016.0
20260507151009 13 85 1.6 6.4 0.00 0.00 0.00 64 1016.0
20260507150512 13 59 3.2 6.4 0.00 0.00 0.00 63 1016.0
20260507150026 13 352 1.6 4.8 0.00 0.00 0.00 63 1016.0
20260507145512 13 305 0.0 4.8 0.00 0.00 0.00 65 1016.0
20260507145016 13 293 1.6 4.8 0.00 0.00 0.00 64 1016.0
20260507144526 13 39 1.6 6.4 0.00 0.00 0.00 65 1016.0
20260507144010 13 55 1.6 6.4 0.00 0.00 0.00 64 1015.9
20260507143509 13 167 3.2 6.4 0.00 0.00 0.00 66 1015.9
20260507143028 13 84 1.6 6.4 0.00 0.00 0.00 64 1015.9
20260507142511 13 87 3.2 6.4 0.00 0.00 0.00 65 1015.9
20260507142011 13 25 1.6 4.8 0.00 0.00 0.00 64 1015.9
20260507141524 13 25 3.2 4.8 0.00 0.00 0.00 65 1016.0
20260507141003 13 338 0.0 4.8 0.00 0.00 0.00 64 1015.9
20260507140503 13 59 1.6 4.8 0.00 0.00 0.00 65 1016.0
20260507140026 13 101 0.0 3.2 0.00 0.00 0.00 63 1016.1
20260507135504 13 194 0.0 4.8 0.00 0.00 0.00 65 1016.1
20260507135011 13 202 1.6 6.4 0.00 0.00 0.00 65 1016.0
20260507134516 13 219 3.2 6.4 0.00 0.00 0.00 63 1016.1
20260507134007 13 300 0.0 3.2 0.00 0.00 0.00 65 1016.0
20260507133507 13 78 0.0 3.2 0.00 0.00 0.00 66 1016.0
20260507133020 13 267 1.6 6.4 0.00 0.00 0.00 64 1016.0
20260507132508 13 80 1.6 6.4 0.00 0.00 0.00 66 1016.1
20260507132003 13 54 3.2 6.4 0.00 0.00 0.00 65 1016.1
20260507131504 13 325 3.2 6.4 0.00 0.00 0.00 65 1016.0
20260507131007 13 336 1.6 4.8 0.00 0.00 0.00 66 1016.1
20260507130503 13 346 0.0 3.2 0.00 0.00 0.00 67 1016.0
20260507130006 12 80 1.6 3.2 0.00 0.00 0.00 65 1016.0
20260507125508 13 18 1.6 3.2 0.00 0.00 0.00 65 1016.1
20260507125004 13 352 1.6 3.2 0.00 0.00 0.00 65 1016.1
20260507124511 13 87 0.0 4.8 0.00 0.00 0.00 65 1016.1
20260507124007 13 128 0.0 4.8 0.00 0.00 0.00 65 1016.0
20260507123507 13 212 0.0 3.2 0.00 0.00 0.00 66 1016.0
20260507123018 13 206 1.6 3.2 0.00 0.00 0.00 66 1016.0
20260507122513 13 142 1.6 4.8 0.00 0.00 0.00 65 1016.0
20260507122011 13 200 1.6 4.8 0.00 0.00 0.00 65 1016.0
20260507121521 13 196 1.6 4.8 0.00 0.00 0.00 65 1015.9
20260507121004 13 260 1.6 4.8 0.00 0.00 0.00 66 1016.0
20260507120504 13 267 3.2 4.8 0.00 0.00 0.00 65 1015.9
20260507120005 13 211 0.0 3.2 0.00 0.00 0.00 67 1015.9
20260507115504 13 49 0.0 3.2 0.00 0.00 0.00 66 1016.0
20260507115007 13 53 0.0 4.8 0.00 0.00 0.00 65 1015.9
20260507114508 13 192 0.0 4.8 0.00 0.00 0.00 67 1015.9
20260507114010 13 192 1.6 3.2 0.00 0.00 0.00 67 1015.9
20260507113508 13 279 0.0 6.4 0.00 0.00 0.00 69 1015.9
20260507113031 12 86 1.6 6.4 0.00 0.00 0.00 67 1015.9
20260507112511 12 15 3.2 3.2 0.00 0.00 0.00 67 1015.9
20260507112008 12 216 1.6 4.8 0.00 0.00 0.00 67 1015.8
20260507111520 12 272 0.0 4.8 0.00 0.00 0.00 66 1015.8
20260507111010 13 189 1.6 6.4 0.00 0.00 0.00 68 1015.8
20260507110511 12 190 1.6 6.4 0.00 0.00 0.00 67 1015.9
20260507110003 12 178 1.6 4.8 0.00 0.00 0.00 66 1015.9
20260507105504 13 277 1.6 4.8 0.00 0.00 0.00 68 1015.9
20260507105003 13 200 1.6 4.8 0.00 0.00 0.00 67 1015.9
20260507104507 13 169 1.6 6.4 0.00 0.00 0.00 67 1015.9
20260507104006 13 184 3.2 6.4 0.00 0.00 0.00 67 1015.9
20260507103506 12 286 0.0 4.8 0.00 0.00 0.00 70 1015.9
20260507103011 12 92 0.0 6.4 0.00 0.00 0.00 69 1016.0
20260507102507 12 128 1.6 6.4 0.00 0.00 0.00 72 1016.0
20260507102009 12 309 0.0 4.8 0.00 0.00 0.00 72 1016.0
20260507101522 12 202 1.6 4.8 0.00 0.00 0.00 72 1016.0
20260507101012 12 90 1.6 3.2 0.00 0.00 0.00 72 1015.9
20260507100507 11 285 0.0 3.2 0.00 0.00 0.00 73 1015.9
20260507100032 11 351 0.0 3.2 0.00 0.00 0.00 72 1015.9
20260507095511 11 269 0.0 4.8 0.00 0.00 0.00 73 1015.8
20260507095004 11 67 1.6 4.8 0.00 0.00 0.00 73 1015.8
20260507094508 11 54 1.6 4.8 0.00 0.00 0.00 72 1015.8
20260507094003 11 54 1.6 6.4 0.00 0.00 0.00 73 1015.7
20260507093504 11 23 1.6 9.7 0.00 0.00 0.00 73 1015.7
20260507093013 11 60 1.6 9.7 0.00 0.00 0.00 75 1015.8
20260507092509 11 346 1.6 4.8 0.00 0.00 0.00 75 1015.8
20260507092008 11 254 3.2 6.4 0.00 0.00 0.00 75 1015.7
20260507091517 11 282 1.6 11.3 0.00 0.00 0.00 75 1015.7
20260507091008 11 78 6.4 11.3 0.00 0.00 0.00 75 1015.7
20260507090510 11 360 3.2 6.4 0.00 0.00 0.00 75 1015.7
20260507090020 11 47 1.6 6.4 0.00 0.00 0.00 75 1015.6
20260507085508 11 61 3.2 6.4 0.00 0.00 0.00 75 1015.6
20260507085009 11 352 3.2 6.4 0.00 0.00 0.00 75 1015.5
20260507084543 10 34 1.6 8.0 0.00 0.00 0.00 76 1015.5
20260507084010 10 340 3.2 8.0 0.00 0.00 0.00 75 1015.5
20260507083506 10 57 3.2 8.0 0.00 0.00 0.00 75 1015.5
20260507083017 10 55 3.2 8.0 0.00 0.00 0.00 75 1015.5
20260507082504 10 74 3.2 9.7 0.00 0.00 0.00 76 1015.5
20260507082006 10 19 3.2 11.3 0.00 0.00 0.00 77 1015.5
20260507081514 10 78 4.8 11.3 0.00 0.00 0.00 77 1015.5
20260507081012 10 64 4.8 8.0 0.00 0.00 0.00 76 1015.4
20260507080507 10 42 4.8 8.0 0.00 0.00 0.00 77 1015.4
20260507080017 10 34 3.2 11.3 0.00 0.00 0.00 76 1015.4
20260507075508 10 329 3.2 11.3 0.00 0.00 0.00 78 1015.3
20260507075015 10 289 3.2 9.7 0.00 0.00 0.00 78 1015.2
20260507074524 9 44 4.8 9.7 0.00 0.00 0.00 78 1015.2
20260507074008 9 21 3.2 8.0 0.00 0.00 0.00 78 1015.1
20260507073508 10 338 3.2 6.4 0.00 0.00 0.00 79 1015.1
20260507073027 9 64 4.8 8.0 0.00 0.00 0.00 78 1015.1
20260507072509 9 314 3.2 8.0 0.00 0.00 0.00 80 1015.0
20260507072003 9 30 3.2 6.4 0.00 0.00 0.00 79 1014.9
20260507071514 9 23 3.2 6.4 0.00 0.00 0.00 80 1014.9
20260507071008 9 13 3.2 9.7 0.00 0.00 0.00 80 1014.9
20260507070507 9 80 3.2 9.7 0.00 0.00 0.00 80 1014.9
20260507070021 9 59 4.8 14.5 0.00 0.00 0.00 80 1014.9
20260507065511 9 327 8.0 14.5 0.00 0.00 0.00 80 1014.7
20260507065006 9 74 1.6 8.0 0.00 0.00 0.00 81 1014.7
20260507064518 9 60 3.2 8.0 0.00 0.00 0.00 80 1014.6
20260507064010 9 65 3.2 8.0 0.00 0.00 0.00 81 1014.6
20260507063513 9 40 4.8 8.0 0.00 0.00 0.00 81 1014.6
20260507063027 9 54 4.8 8.0 0.00 0.00 0.00 81 1014.6
20260507062508 9 75 1.6 4.8 0.00 0.00 0.00 82 1014.6
20260507062010 9 5 1.6 6.4 0.00 0.00 0.00 83 1014.5
20260507061534 9 28 1.6 6.4 0.00 0.00 0.00 83 1014.4
20260507061010 9 360 0.0 6.4 0.00 0.00 0.00 83 1014.4
20260507060503 8 11 1.6 6.4 0.00 0.00 0.00 83 1014.3
20260507060014 8 42 3.2 6.4 0.00 0.00 0.00 83 1014.3
20260507055508 8 23 3.2 6.4 0.00 0.00 0.00 84 1014.3
20260507055007 8 25 1.6 4.8 0.00 0.00 0.00 85 1014.2
20260507054518 8 9 1.6 4.8 0.00 0.00 0.00 85 1014.2
20260507054010 8 10 1.6 4.8 0.00 0.00 0.00 85 1014.1
20260507053517 8 340 0.0 3.2 0.00 0.00 0.00 85 1014.0
20260507053023 8 352 0.0 3.2 0.00 0.00 0.00 85 1014.0
20260507052511 8 9 0.0 3.2 0.00 0.00 0.00 85 1014.0
20260507052011 8 9 0.0 3.2 0.00 0.00 0.00 86 1013.9
20260507051524 8 350 0.0 3.2 0.00 0.00 0.00 86 1013.8
20260507051006 8 301 0.0 3.2 0.00 0.00 0.00 87 1013.8
20260507050505 8 291 0.0 3.2 0.00 0.00 0.00 87 1013.8
20260507050034 8 302 0.0 3.2 0.00 0.00 0.00 87 1013.7
20260507045508 8 296 0.0 3.2 0.00 0.00 0.00 87 1013.6
20260507045007 8 59 0.0 3.2 0.00 0.00 0.00 87 1013.5
20260507044522 8 59 0.0 3.2 0.00 0.00 0.00 87 1013.5
20260507044007 8 59 1.6 3.2 0.00 0.00 0.00 87 1013.4
20260507043507 8 38 0.0 3.2 0.00 0.00 0.00 87 1013.3
20260507043021 8 38 0.0 3.2 0.00 0.00 0.00 87 1013.2
20260507042509 8 38 0.0 3.2 0.00 0.00 0.00 87 1013.2
20260507042014 8 70 0.0 3.2 0.00 0.00 0.00 87 1013.1
20260507041504 8 71 0.0 3.2 0.00 0.03 0.00 87 1013.1
20260507041003 8 70 0.0 3.2 0.00 0.03 0.00 87 1013.1
20260507040506 8 63 0.0 3.2 0.00 0.03 0.00 87 1013.1
20260507040013 8 63 0.0 3.2 0.00 0.03 0.00 87 1013.1
20260507035505 8 63 0.0 3.2 0.00 0.03 0.00 87 1013.1
20260507035007 8 44 0.0 3.2 0.00 0.03 0.00 87 1013.0
20260507034516 8 30 0.0 3.2 0.00 0.03 0.00 87 1012.9
20260507034013 8 301 0.0 3.2 0.00 0.03 0.00 88 1013.0
20260507033507 8 313 0.0 3.2 0.00 0.03 0.00 88 1012.9
20260507033029 8 313 0.0 3.2 0.00 0.03 0.00 88 1013.0
20260507032511 8 227 0.0 3.2 0.00 0.03 0.00 88 1012.9
20260507032011 8 227 0.0 3.2 0.00 0.03 0.00 88 1013.0
20260507031528 8 228 0.0 3.2 0.00 0.03 0.00 88 1012.9
20260507031011 8 228 0.0 3.2 0.00 0.03 0.00 88 1012.8
20260507030512 8 213 0.0 3.2 0.00 0.03 0.00 88 1012.8
20260507030006 8 202 0.0 3.2 0.00 0.03 0.00 88 1012.8
20260507025503 8 219 0.0 1.6 0.00 0.03 0.00 87 1012.8
20260507025012 8 209 0.0 3.2 0.00 0.03 0.00 87 1012.8
20260507024516 8 191 0.0 3.2 0.00 0.03 0.00 87 1012.8
20260507024009 8 219 0.0 3.2 0.00 0.03 0.00 87 1012.8
20260507023509 8 195 0.0 4.8 0.00 0.03 0.00 87 1012.8
20260507023016 8 195 0.0 4.8 0.00 0.03 0.00 87 1012.7
20260507022509 8 209 0.0 9.7 0.00 0.03 0.00 87 1012.7
20260507022009 8 221 4.8 9.7 0.00 0.03 0.00 86 1012.6
20260507021536 8 268 1.6 4.8 0.00 0.03 0.00 87 1012.6
20260507021011 8 246 0.0 3.2 0.00 0.03 0.00 87 1012.5
20260507020511 8 225 0.0 3.2 0.00 0.03 0.00 87 1012.5
20260507020026 8 195 0.0 3.2 0.00 0.03 0.00 87 1012.4
20260507015509 8 327 0.0 3.2 0.00 0.03 0.00 87 1012.5
20260507015011 8 192 0.0 3.2 0.00 0.03 0.00 87 1012.4
20260507014508 8 250 0.0 6.4 0.00 0.03 0.00 87 1012.4
20260507014005 8 250 1.6 6.4 0.00 0.03 0.00 87 1012.4
20260507013507 8 243 3.2 9.7 0.00 0.03 0.00 86 1012.4
20260507013015 8 265 4.8 9.7 0.00 0.03 0.00 86 1012.4
20260507012506 8 277 1.6 4.8 0.00 0.03 0.00 86 1012.3
20260507012009 8 211 0.0 6.4 0.00 0.03 0.00 86 1012.3
20260507011528 8 323 3.2 6.4 0.00 0.03 0.00 86 1012.3
20260507011007 8 268 1.6 6.4 0.00 0.03 0.00 86 1012.4
20260507010512 8 251 1.6 6.4 0.00 0.03 0.00 86 1012.3
20260507010037 8 240 3.2 6.4 0.00 0.03 0.00 86 1012.3
20260507005507 8 234 1.6 3.2 0.00 0.03 0.00 85 1012.2
20260507005017 8 280 0.0 4.8 0.00 0.03 0.00 85 1012.2
20260507004526 8 327 0.0 4.8 0.00 0.03 0.00 84 1012.2
20260507004011 8 310 1.6 4.8 0.00 0.03 0.00 84 1012.2
20260507003508 8 291 0.0 3.2 0.00 0.03 0.00 84 1012.2
20260507003012 8 260 0.0 3.2 0.00 0.03 0.00 83 1012.2
20260507002507 8 281 0.0 4.8 0.00 0.03 0.00 83 1012.1
20260507002006 8 340 1.6 4.8 0.00 0.03 0.00 83 1012.1
20260507001519 8 348 0.0 3.2 0.00 0.03 0.00 83 1012.1
20260507001008 8 312 0.0 3.2 0.00 0.05 0.00 82 1012.0
20260507000512 8 317 0.0 4.8 0.00 0.05 0.00 82 1012.0
20260507000023 8 265 1.6 4.8 0.00 0.05 0.00 82 1012.0
20260506235507 8 249 1.6 4.8 0.00 0.05 0.00 82 1012.0
20260506235011 8 234 0.0 9.7 0.00 0.05 0.00 82 1012.0
20260506234526 8 232 3.2 9.7 0.00 0.05 0.00 82 1012.0
20260506234012 8 279 0.0 4.8 0.00 0.05 0.00 82 1012.0
20260506233512 8 264 0.0 4.8 0.00 0.05 0.00 82 1012.0
20260506233028 8 271 0.0 8.0 0.00 0.05 0.00 82 1011.9
20260506232507 8 286 1.6 8.0 0.00 0.05 0.00 82 1012.0
20260506232008 8 253 1.6 3.2 0.00 0.05 0.00 82 1011.9
20260506231522 8 259 0.0 4.8 0.00 0.05 0.00 82 1012.0
20260506231007 8 252 0.0 4.8 0.00 0.05 0.00 82 1012.0
20260506230506 8 260 1.6 4.8 0.00 0.05 0.00 82 1012.0
20260506230022 8 248 1.6 4.8 0.00 0.05 0.00 82 1011.9
20260506225511 8 265 3.2 4.8 0.00 0.05 0.00 82 1012.0
20260506225008 8 273 1.6 6.4 0.00 0.05 0.00 82 1011.9
20260506224523 8 319 1.6 6.4 0.00 0.05 0.00 81 1011.9
20260506224007 8 265 1.6 4.8 0.00 0.05 0.00 82 1011.9
20260506223515 8 310 1.6 4.8 0.00 0.05 0.00 82 1011.9
20260506223026 8 53 1.6 4.8 0.00 0.05 0.00 82 1011.9
20260506222512 8 348 0.0 3.2 0.00 0.05 0.00 83 1011.9
20260506222015 8 31 1.6 4.8 0.00 0.05 0.00 82 1011.9
20260506221526 8 10 1.6 4.8 0.00 0.05 0.00 82 1011.8
20260506221011 8 344 0.0 3.2 0.00 0.05 0.00 82 1011.7
20260506220504 8 349 0.0 3.2 0.00 0.05 0.00 82 1011.7
20260506220027 8 319 0.0 3.2 0.00 0.05 0.00 82 1011.6
20260506215506 8 352 0.0 3.2 0.00 0.05 0.05 82 1011.5
20260506215013 8 34 0.0 3.2 0.00 0.05 0.05 82 1011.5
20260506214522 8 287 0.0 3.2 0.00 0.05 0.05 83 1011.4
20260506214008 8 311 0.0 3.2 0.00 0.05 0.05 82 1011.4
20260506213510 8 5 0.0 3.2 0.00 0.05 0.05 82 1011.3
20260506213030 8 5 0.0 3.2 0.00 0.05 0.05 82 1011.2
20260506212508 9 5 0.0 3.2 0.00 0.05 0.05 81 1011.1
20260506212018 9 15 0.0 3.2 0.00 0.05 0.05 81 1011.1
20260506211529 9 25 1.6 3.2 0.00 0.05 0.05 82 1011.1
20260506211010 9 55 0.0 3.2 0.00 0.08 0.05 82 1011.1
20260506210511 9 19 0.0 3.2 0.00 0.08 0.05 81 1011.1
20260506210034 9 19 0.0 3.2 0.00 0.08 0.05 81 1011.2
20260506205508 9 19 0.0 3.2 0.00 0.10 0.05 81 1010.9
20260506205008 9 9 0.0 3.2 0.00 0.15 0.05 81 1011.0
20260506204519 9 11 0.0 4.8 0.00 0.18 0.05 80 1010.9
20260506204010 9 360 1.6 4.8 0.00 0.25 0.05 79 1010.9
20260506203511 9 82 1.6 3.2 0.00 0.28 0.05 79 1010.9
20260506203028 9 13 1.6 3.2 0.00 0.30 0.05 79 1010.9
20260506202510 9 74 0.0 6.4 0.00 0.36 0.05 79 1010.8
20260506202012 10 13 3.2 6.4 0.00 0.41 0.05 78 1010.8